Weather History for Kindakun Rocks, BC

Change the Weather History Date:

Tuesday, February 26, 2013

  Actual Average Record
Temperature  
Mean Temperature 42 °F -  
Max Temperature 44 °F - - ()
Min Temperature 39 °F - - ()
Degree Days  
Heating Degree Days 24    
Moisture  
Dew Point -    
Average Humidity    
Maximum Humidity    
Minimum Humidity    
Precipitation  
Precipitation 0.08 in - - ()
Sea Level Pressure  
Sea Level Pressure 29.69 in    
Wind  
Wind Speed 22 mph ()    
Max Wind Speed 30 mph    
Max Gust Speed 43 mph    
T = Trace of Precipitation, MM = Missing Value Source: Averaged Metar Reports

Daily Weather History Graph

Daily Weather History Graph

Search for Another Location

Airport:

Trip Planner

Search our weather history database for the weather conditions in past years. The results will help you decide how hot, cold, wet, or windy it might be!

Date:

Astronomy

Feb. 26, 2013 Rise Set
Actual Time 7:44 AM PST 6:24 PM PST
Civil Twilight 7:09 AM PST 6:59 PM PST
Nautical Twilight 6:29 AM PST 7:39 PM PST
Astronomical Twilight 5:48 AM PST 8:20 PM PST
Moon 8:08 PM PST (2/26) 7:35 AM PST (2/26)
Length of Visible Light 11h 50m
Length of Day
10h 39m
Full, 99% of the Moon is Illuminated
Feb 26
Full
Mar 4
Last Quarter
Mar 11
New
Mar 19
First Quarter
Mar 27
Full

Hourly Weather History & Observations

Time (PST) Temp. Windchill Dew Point Humidity Pressure Visibility Wind Dir Wind Speed Gust Speed Precip Events Conditions
12:00 AM 41.5 °F 30.6 °F - N/A% 29.77 in - South 29.9 mph 42.6 mph 0.01 in   Unknown
1:00 AM 42 °F - - % 29.74 in - South 27.6 mph - -  
1:00 AM 41.7 °F 31.2 °F - N/A% 29.74 in - South 27.6 mph 38.0 mph 0.01 in   Unknown
2:00 AM 41.9 °F 31.5 °F - N/A% 29.70 in - South 27.6 mph 40.3 mph 0.02 in   Unknown
3:00 AM 41.2 °F 31.4 °F - N/A% 29.67 in - South 23.0 mph 29.9 mph 0.04 in   Unknown
4:00 AM 41 °F - - % 29.63 in - South 23.0 mph - -  
4:00 AM 41.4 °F 31.6 °F - N/A% 29.63 in - South 23.0 mph 33.4 mph 0.01 in   Unknown
5:00 AM 41.9 °F 31.9 °F - N/A% 29.61 in - South 25.3 mph 34.5 mph 0.02 in   Unknown
6:00 AM 44.1 °F 34.8 °F - N/A% 29.60 in - South 25.3 mph - N/A   Unknown
7:00 AM 43 °F - - % 29.61 in - SW 18.4 mph - -  
7:00 AM 43.2 °F 35.0 °F - N/A% 29.61 in - SW 18.4 mph - 0.02 in   Unknown
8:00 AM 42.1 °F 33.1 °F - N/A% 29.60 in - SSW 20.7 mph 28.8 mph N/A   Unknown
9:00 AM 42.4 °F 33.3 °F - N/A% 29.62 in - SW 21.9 mph 27.6 mph N/A   Unknown
10:00 AM 43 °F - - % 29.63 in - SSW 25.3 mph - -  
10:00 AM 42.8 °F 33.1 °F - N/A% 29.63 in - SSW 25.3 mph - N/A   Unknown
11:00 AM 41.4 °F 31.6 °F - N/A% 29.65 in - SSW 23.0 mph - 0.01 in   Unknown
12:00 PM 41.4 °F 32.7 °F - N/A% 29.66 in - South 18.4 mph - N/A   Unknown
1:00 PM 40 °F - - % 29.67 in - SSW 23.0 mph - -  
1:00 PM 40.1 °F 29.9 °F - N/A% 29.67 in - SSW 23.0 mph 29.9 mph 0.07 in   Unknown
2:00 PM 42.4 °F 33.5 °F - N/A% 29.68 in - South 20.7 mph 27.6 mph 0.01 in   Unknown
3:00 PM 41.7 °F 32.1 °F - N/A% 29.69 in - SSW 23.0 mph - N/A   Unknown
4:00 PM 42 °F - - % 29.70 in - SSW 26.5 mph - -  
4:00 PM 42.1 °F 31.9 °F - N/A% 29.70 in - SSW 26.5 mph - N/A   Unknown
5:00 PM 41.2 °F 30.7 °F - N/A% 29.71 in - SSW 26.5 mph 33.4 mph N/A   Unknown
6:00 PM 41.5 °F 31.9 °F - N/A% 29.72 in - SW 23.0 mph 28.8 mph N/A   Unknown
7:00 PM 41 °F - - % 29.73 in - SSW 27.6 mph - -  
7:00 PM 41.2 °F 30.5 °F - N/A% 29.73 in - SSW 27.6 mph - N/A   Unknown
8:00 PM 41.0 °F 30.9 °F - N/A% 29.75 in - SW 24.2 mph 31.1 mph 0.01 in   Unknown
9:00 PM 41.2 °F 31.1 °F - N/A% 29.77 in - SSW 24.2 mph 31.1 mph N/A   Unknown
10:00 PM 40 °F - - % 29.78 in - SW 19.6 mph - -  
10:00 PM 39.9 °F 30.5 °F - N/A% 29.78 in - SW 19.6 mph 25.3 mph N/A   Unknown
11:00 PM 40.3 °F 31.0 °F - N/A% 29.78 in - SSW 19.6 mph 25.3 mph N/A   Unknown